Waarnemingen

Advertentie
Mijn weer
Torup A, Zweden (2618): temperatuur & dauwpunt: 19.04.2018 07:00:00 - 25.04.2018 07:00:00 (CEST)Torup A, Zweden (2618): windsnelheid & windstoten: 19.04.2018 07:00:00 - 25.04.2018 07:00:00 (CEST)Torup A, Zweden (2618): windrichting: 19.04.2018 07:00:00 - 25.04.2018 07:00:00 (CEST)Torup A, Zweden (2618): luchtdruk: 19.04.2018 07:00:00 - 25.04.2018 07:00:00 (CEST)Torup A, Zweden (2618): zicht: 19.04.2018 07:00:00 - 25.04.2018 07:00:00 (CEST)Torup A, Zweden (2618): neerslag: 19.04.2018 07:00:00 - 25.04.2018 07:00:00 (CEST)
Datum & Tijd tt [°C] td [°C] ff [km/u] ff [kn] fx [km/u] fx [kn] dd ppp [hPa] vv [km] rr [mm]
25.04.2018 07:00:00 6,1 4,5 6 4 20 11 ZW 1001,4 10 0,0
25.04.2018 06:00:00 5,5 4,3 9 5 26 14 WZW 1001,8 10 0,0
25.04.2018 05:00:00 5,6 4,4 11 6 31 17 ZW 1002,3 9 0,0
25.04.2018 04:00:00 5,1 3,9 11 6 33 18 ZW 1003,0 9 0,0
25.04.2018 03:00:00 5,9 4,1 17 9 33 18 WZW 1003,4 13 0,0
25.04.2018 02:00:00 6,1 4,3 10 5 39 21 WZW 1003,8 10 0,0
25.04.2018 01:00:00 6,4 4,4 15 8 39 21 WZW 1004,2 12 0,0
25.04.2018 00:00:00 6,4 4,2 19 11 39 21 WZW 1004,4 13 0,0
24.04.2018 23:00:00 6,7 4,7 19 10 39 21 WZW 1004,5 13 0,0
24.04.2018 22:00:00 6,7 4,7 16 8 44 24 WZW 1004,4 15 0,0
24.04.2018 21:00:00 7,1 4,9 25 13 44 24 WZW 1004,1 13 0,0
24.04.2018 20:00:00 7,3 5,4 21 11 52 28 WZW 1003,5 14 0,0
24.04.2018 19:00:00 7,4 6,0 20 11 52 28 WZW 1003,2 14 0,0
24.04.2018 18:00:00 7,7 6,0 24 13 51 28 WZW 1003,0 12 0,0
24.04.2018 17:00:00 8,1 6,9 25 13 51 28 WZW 1002,5 9 0,1
24.04.2018 16:00:00 8,2 7,0 22 12 50 27 WZW 1002,7 12 0,4
24.04.2018 15:00:00 8,5 7,7 24 13 49 27 WZW 1002,7 3,2 1,1
24.04.2018 14:00:00 8,9 7,8 20 11 49 26 ZW 1002,5 8 0,0
24.04.2018 13:00:00 8,7 7,9 24 13 49 26 ZW 1002,5 7 0,0
24.04.2018 12:00:00 8,1 7,8 22 12 41 22 ZW 1002,9 3,3 1,7
24.04.2018 11:00:00 7,3 7,0 11 6 29 15 Z 1003,4 2,7 1,1
24.04.2018 10:00:00 6,9 6,5 11 6 29 15 ZZW 1004,3 3,1 0,4
24.04.2018 09:00:00 7,0 6,3 11 6 31 17 ZZW 1004,9 9 0,2
24.04.2018 08:00:00 6,8 6,2 13 7 31 17 ZW 1005,6 8 1,2
24.04.2018 07:00:00 6,5 5,9 11 6 23 13 ZW 1006,0 5 1,0
24.04.2018 06:00:00 6,8 5,9 12 7 25 13 ZW 1006,2 12 0,0
24.04.2018 05:00:00 6,7 5,6 11 6 30 16 WZW 1006,4 9 0,2
24.04.2018 04:00:00 7,0 5,1 13 7 35 19 WZW 1006,4 14 0,0
24.04.2018 03:00:00 7,0 5,5 13 7 36 19 WZW 1006,8 9 0,0
24.04.2018 02:00:00 7,6 5,2 14 8 40 21 WZW 1007,1 14 0,0
24.04.2018 01:00:00 8,0 5,3 16 9 40 21 WZW 1007,1 15 0,0
24.04.2018 00:00:00 8,3 5,2 16 8 37 20 WZW 1006,7 17 0,0
23.04.2018 23:00:00 8,7 4,9 16 8 37 20 WZW 1006,7 17 0,0
23.04.2018 22:00:00 9,1 4,7 18 10 36 19 WZW 1006,4 20 0,0
23.04.2018 21:00:00 9,2 5,0 16 8 32 17 WZW 1006,5 22 0,0
23.04.2018 20:00:00 9,3 5,8 14 7 29 16 WZW 1006,2 20 0,0
23.04.2018 19:00:00 9,7 6,8 14 8 35 19 ZW 1006,1 24 0,0
23.04.2018 18:00:00 12,0 5,4 14 7 49 26 ZW 1006,0 16 0,0
23.04.2018 17:00:00 13,4 4,8 21 11 49 26 WZW 1005,8 18 0,0
23.04.2018 16:00:00 13,5 5,1 24 13 45 24 W 1005,6 18 0,0
23.04.2018 15:00:00 12,9 5,1 26 14 45 24 W 1005,6 17 0,0
23.04.2018 14:00:00 12,4 7,9 21 11 42 23 WZW 1005,5 14 0,0
23.04.2018 13:00:00 10,4 9,6 13 7 26 14 WZW 1005,1 4,3 0,0
23.04.2018 12:00:00 8,9 8,4 13 7 23 13 ZW 1004,9 4,7 0,3
23.04.2018 11:00:00 7,8 7,2 6 4 21 12 ZZO 1004,9 10 0,0
23.04.2018 10:00:00 7,3 6,6 9 5 22 12 ZO 1004,9 11 1,1
23.04.2018 09:00:00 6,2 5,2 9 5 26 14 ZZO 1005,6 5 1,1
23.04.2018 08:00:00 5,8 4,6 13 7 26 14 OZO 1005,5 14 0,3
23.04.2018 07:00:00 5,5 3,3 13 7 24 13 OZO 1006,5 17 0,2
23.04.2018 06:00:00 5,6 1,0 9 5 24 13 OZO 1007,6 16 0,0
23.04.2018 05:00:00 5,1 2,3 13 7 24 13 OZO 1008,8 13 0,0
23.04.2018 04:00:00 4,8 2,5 10 5 17 9 O 1009,7 15 0,0
23.04.2018 03:00:00 5,6 2,6 8 4 17 9 O 1010,6 14 0,0
23.04.2018 02:00:00 6,4 3,6 9 5 17 9 ZO 1011,7 15 0,0
23.04.2018 01:00:00 6,9 3,9 8 4 14 8 OZO 1011,7 17 0,0
23.04.2018 00:00:00 7,8 4,2 6 4 11 6 ZO 1012,3 20 0,0
22.04.2018 23:00:00 8,6 3,8 6 4 9 5 OZO 1012,6 25 0,0
22.04.2018 22:00:00 8,6 3,0 4 2 6 4 ZZO 1013,2 24 0,0
22.04.2018 21:00:00 10,2 2,1 4 2 9 5 Z 1013,1 25 0,0
22.04.2018 20:00:00 11,1 2,4 3 2 16 9 ZZW 1012,9 19 0,0
22.04.2018 19:00:00 12,9 1,6 6 3 24 13 Z 1013,1 21 0,0
22.04.2018 18:00:00 15,3 2,5 9 5 24 13 ZZW 1013,4 17 0,0
22.04.2018 17:00:00 15,5 3,0 11 6 24 13 ZZW 1014,0 21 0,0
22.04.2018 16:00:00 15,6 3,7 11 6 22 12 Z 1014,1 22 0,0
22.04.2018 15:00:00 15,2 2,0 4 2 19 11 OZO 1014,6 14 0,0
22.04.2018 14:00:00 14,3 2,5 9 5 19 11 ZO 1015,3 26 0,0
22.04.2018 13:00:00 12,9 4,1 8 5 14 8 OZO 1015,7 17 0,0
22.04.2018 12:00:00 11,5 4,2 5 3 14 8 NO 1016,3 19 0,0
22.04.2018 11:00:00 9,1 4,3 5 3 12 7 N 1017,0 14 0,0
22.04.2018 10:00:00 7,0 4,3 3 2 12 7 ZW 1017,2 18 0,0
22.04.2018 09:00:00 5,8 4,8 4 2 13 7 ZZW 1017,3 10 0,0
22.04.2018 08:00:00 4,8 4,4 4 2 13 7 ZZO 1017,3 6 0,0
22.04.2018 07:00:00 4,8 4,4 6 3 13 7 WZW 1017,0 7 0,0
22.04.2018 06:00:00 4,8 4,4 6 3 13 7 ZW 1017,0 6 0,0
22.04.2018 05:00:00 4,9 4,3 6 3 13 7 WZW 1017,2 7 0,0
22.04.2018 04:00:00 5,1 4,5 6 3 27 14 W 1017,3 9 0,0
22.04.2018 03:00:00 5,2 4,5 10 5 27 14 W 1017,1 11 0,0
22.04.2018 02:00:00 5,4 4,7 14 7 25 13 W 1017,4 11 0,0
22.04.2018 01:00:00 4,6 4,0 10 6 17 9 W 1017,6 10 0,0
22.04.2018 00:00:00 4,3 3,6 8 5 14 8 WZW 1017,7 12 0,0
21.04.2018 23:00:00 4,8 3,8 8 4 16 8 WZW 1017,6 13 0,0
21.04.2018 22:00:00 5,8 4,0 10 5 16 8 WZW 1017,5 14 0,0
21.04.2018 21:00:00 6,9 3,9 5 3 28 15 WZW 1017,6 25 0,0
21.04.2018 20:00:00 9,5 3,5 12 6 36 19 W 1017,0 21 0,0
21.04.2018 19:00:00 11,3 3,1 16 9 44 24 W 1017,0 21 0,0
21.04.2018 18:00:00 12,7 2,5 17 9 44 24 W 1016,9 26 0,0
21.04.2018 17:00:00 13,3 2,2 22 12 47 25 W 1017,0 29 0,0
21.04.2018 16:00:00 14,0 2,6 18 10 47 25 W 1017,0 31 0,0
21.04.2018 15:00:00 14,6 3,1 20 11 45 24 W 1017,0 27 0,0
21.04.2018 14:00:00 13,7 2,3 25 14 45 24 W 1016,7 28 0,0
21.04.2018 13:00:00 13,6 3,7 23 12 40 22 W 1016,8 30 0,0
21.04.2018 12:00:00 13,6 4,2 21 11 40 21 W 1016,5 27 0,0
21.04.2018 11:00:00 13,0 3,4 22 12 40 21 W 1016,4 30 0,0
21.04.2018 10:00:00 12,1 4,3 17 9 40 22 WNW 1015,9 22 0,0
21.04.2018 09:00:00 11,1 4,1 18 10 40 22 WNW 1015,4 19 0,0
21.04.2018 08:00:00 9,5 4,3 17 9 31 17 WNW 1015,1 19 0,0
21.04.2018 07:00:00 8,0 4,2 14 8 27 14 W 1014,9 21 0,0
21.04.2018 06:00:00 7,1 3,7 13 7 23 13 W 1014,5 24 0,0
21.04.2018 05:00:00 7,1 3,7 13 7 26 14 W 1014,5 25 0,0
21.04.2018 04:00:00 7,7 4,3 13 7 26 14 W 1014,5 22 0,0
21.04.2018 03:00:00 8,1 5,0 13 7 23 13 W 1014,3 15 0,0
21.04.2018 02:00:00 8,7 5,4 11 6 29 16 W 1014,3 13 0,0
21.04.2018 01:00:00 9,9 6,4 11 6 31 17 W 1014,1 11 0,0
21.04.2018 00:00:00 11,7 7,4 14 8 31 17 W 1013,6 11 0,0
20.04.2018 23:00:00 12,9 7,8 18 10 30 16 W 1013,3 11 0,0
20.04.2018 22:00:00 13,5 8,8 8 5 28 15 W 1013,5 10 0,0
20.04.2018 21:00:00 15,1 9,9 10 5 29 15 W 1013,3 11 0,0
20.04.2018 20:00:00 17,4 10,0 11 6 34 18 ZW 1013,0 16 0,0
20.04.2018 19:00:00 19,8 9,7 16 9 34 19 ZW 1013,4 20 0,0
20.04.2018 18:00:00 22,2 10,0 16 9 39 21 ZW 1014,1 37 0,0
20.04.2018 17:00:00 22,5 9,6 20 11 41 22 ZZW 1015,0 28 0,0
20.04.2018 16:00:00 22,9 9,3 23 13 41 22 ZZW 1016,0 32 0,0
20.04.2018 15:00:00 23,1 8,8 23 13 39 21 ZZW 1017,4 34 0,0
20.04.2018 14:00:00 22,7 9,1 22 12 38 21 ZZW 1018,3 33 0,0
20.04.2018 13:00:00 22,9 10,0 18 10 34 19 ZZW 1019,4 32 0,0
20.04.2018 12:00:00 22,1 10,9 16 9 31 17 ZW 1020,5 29 0,0
20.04.2018 11:00:00 20,5 11,1 13 7 30 16 ZW 1021,4 17 0,0
20.04.2018 10:00:00 18,0 11,1 16 9 30 16 ZW 1022,3 27 0,0
20.04.2018 09:00:00 15,5 11,1 9 5 17 9 ZZW 1023,0 16 0,0
20.04.2018 08:00:00 11,4 8,6 8 4 13 7 ZZW 1023,8 13 0,0
20.04.2018 07:00:00 5,0 4,7 7 4 12 7 Z 1024,9 11 0,0
20.04.2018 06:00:00 4,0 3,7 5 3 9 5 Z 1025,4 12 0,0
20.04.2018 05:00:00 3,7 3,4 5 3 9 5 ZZO 1026,1 11 0,0
20.04.2018 04:00:00 4,9 4,8 3 2 6 3 OZO 1026,6 9 0,0
20.04.2018 03:00:00 5,6 5,3 3 2 7 4 OZO 1026,8 7 0,0
20.04.2018 02:00:00 6,6 6,2 2 1 10 5 OZO 1027,3 1,0 0,0
20.04.2018 01:00:00 8,9 8,3 6 3 10 5 Z 1027,7 10 0,0
20.04.2018 00:00:00 8,7 8,1 3 2 5 3 ZZO 1028,1 10 0,0
19.04.2018 23:00:00 10,2 9,0 2 1 11 6 O 1028,4 12 0,0
19.04.2018 22:00:00 11,6 8,8 0 0 11 6 N 1028,6 14 0,0
19.04.2018 21:00:00 12,9 10,1 8 4 11 6 ZW 1028,9 11 0,0
19.04.2018 20:00:00 15,3 9,6 5 3 16 9 WZW 1028,8 22 0,0
19.04.2018 19:00:00 17,7 10,1 8 5 22 12 W 1029,1 18 0,0
19.04.2018 18:00:00 18,7 10,5 8 4 23 13 WZW 1029,4 15 0,0
19.04.2018 17:00:00 19,2 10,7 11 6 29 15 WZW 1029,6 18 0,0
19.04.2018 16:00:00 19,3 11,1 11 6 29 15 W 1030,0 17 0,0
19.04.2018 15:00:00 19,0 10,8 17 9 29 16 W 1030,5 21 0,0
19.04.2018 14:00:00 18,6 10,9 16 8 29 16 WZW 1030,7 17 0,0
19.04.2018 13:00:00 17,8 11,1 15 8 24 13 WZW 1030,9 19 0,0
19.04.2018 12:00:00 16,7 11,0 12 7 24 13 W 1031,3 15 0,0
19.04.2018 11:00:00 13,4 10,6 8 5 21 11 WNW 1031,6 9 0,0
19.04.2018 10:00:00 12,1 10,5 4 2 21 11 W 1031,9 11 0,0
19.04.2018 09:00:00 9,8 8,7 2 1 8 4 NW 1031,6 9 0,0
19.04.2018 08:00:00 9,3 9,2 0 0 5 3 N 1031,3 3,9 0,0
19.04.2018 07:00:00 7,0 6,7 2 1 6 3 O 1031,2 4,8 0,0

tt = temperatuur
td = dauwpunt
ff = windsnelheid
fx = windstoten
dd = windrichting
ppp = luchtdruk
vv = zicht
rr = neerslag

Weerstations in de omgeving